STARLINK-37495, 68841

Orbit data source: Space-Track

STARLINK-37495, 68841 is a payload satellite owned by SpaceX/Seattle (US) in SSO that was launched on Sun, 26 Apr 2026 UTC via an FALCON 9 launch vehicle from the Air Force Western Test Range (AFWTR). Payload-class satellites include a variety of spacecraft equipped with specific instruments for various scientific and technological missions. These include communications satellites like Starlink; space stations such as the ISS; scientific satellites like the Hubble; Earth observation satellites from companies like Planet Labs, Umbra, and HawkEye 360; GPS; miniature CubeSats for education and research; and military/defense satellites.

Loading next visibility...
Identifier
68841, 2026-094C
Orbit
SSO
Country
Flag of USUS
Related business
Manufacturer
SpaceX/Seattle
Mission
Operational spacecraft
Bus & Motor
STARLINK V2MO, Unknown motor
Mass
575 kg wet, ~530 kg dry
Launch date (UTC)
2026-04-26 (2 months ago)
Launch vehicle
FALCON 9
Launch site
Air Force Western Test Range (AFWTR)
Object type
Payload
Rocket body
Debris
Shape & HBR
Unknown shape, 14.5 m
Radar Cross Section
Large (>1 m²)

Expand to show TLE details & history
Last TLE update: 21 hours ago

TLE from 21 hours ago
0 STARLINK-37495
1 68841U 26094C   26170.96539599  .00011392  00000-0  35459-3 0  9994
2 68841  97.2848 185.3638 0001540  91.5913 268.5506 15.33450475  8477
Epoch: 2026-06-19T23:10Z
TLE epoch observation values (Epoch: 2026-06-19T23:10:10.213Z)
Latitude
-0.00004°
Longitude
-70.36555°
Altitude
468.666 km
Speed
7.632 km/s
True Right ascension
12h 21m 27s
True Declination
0° 00' 00"
Sunlit
Object was in daylight at epoch
Visualization orbit readout
Latitude
Unknown
Longitude
Unknown
Altitude
Unknown
Speed
Unknown
Apparent Right ascension
Unknown
Apparent Declination
Unknown
Sunlit
N/A
Visualization observer readout
Local Sidereal Time
07:13:09
Azimuth
Unknown
Elevation
Unknown
Doppler factor
Unknown
Orbital elements
Apogee altitude
463.523 km
Perigee altitude
461.416 km
Semi-major axis
6,840.607 km
Eccentricity
0.00015
Inclination
97.2848°
RAAN
185.3638°
Arg. of periapsis
91.5913°
True anomaly
268.53296°
Mean anomaly
268.5506°
Eccentric anomaly
268.54178°
Mean motion
3.8362 °/min
Orbital period
93.84 mins
BSTAR
0.00035459
Loading maneuver chart data...
Computing Atmospheric mass density...
Loading historical data...
Loading historical data...
Loading historical data...
Loading historical data...
Loading historical data...
Loading historical data...
Loading historical data...

Documentation

Showing up to 5 results
|